Regional Weather Roundup
Issued by NWS

Home | Current Version | Previous Version | Graphics & Text | Print | Product List | Glossary On
Versions: 1 2 3 4 5 6 7 8 9 10 11 12 13 14 15 16 17 18 19 20 21 22 23 24 25 26 27 28 29 30 31 32 33 34 35 36 37 38 39 40 41 42 43 44 45 46 47 48 49 50
000
ASUS43 KLMK 280902
RWRKY
KENTUCKY REGIONAL WEATHER ROUNDUP
NATIONAL WEATHER SERVICE LOUISVILLE KY
500 AM EDT THU APR 28 2016

NOTE "FAIR" INDICATES FEW OR NO CLOUDS BELOW 12,000 FEET
WITH NO SIGNIFICANT WEATHER AND/OR OBSTRUCTIONS TO VISIBILITY.

KYZ001>023-026-027-061>063-070>075-281000-
WESTERN AND SOUTH CENTRAL KENTUCKY

CITY           SKY/WX    TMP DP  RH WIND       PRES   REMARKS
PADUCAH        PTCLDY    64  62  93 CALM      29.75R
HENDERSON      MOCLDY    64  59  82 SW9       29.72S
OWENSBORO      CLOUDY    64  64 100 S6        29.75S
HOPKINSVILLE   CLOUDY    64  64 100 S3        29.77R
BOWLING GREEN  MOCLDY    65  63  93 CALM      29.78R
GLASGOW        NOT AVBL
$$

KYZ024-025-028>034-038-045-046-053-281000-
NORTH CENTRAL KENTUCKY

CITY           SKY/WX    TMP DP  RH WIND       PRES   REMARKS
LOUISVILLE/SDF CLOUDY    63  60  90 SE7       29.77R
LOUISVILLE/LOU CLOUDY    62  60  93 CALM      29.78R
FORT KNOX      CLOUDY    61  61 100 SE5       29.75F
$$

KYZ035>037-039>044-047>052-055>060-089>105-281000-
NORTHEAST KENTUCKY

CITY           SKY/WX    TMP DP  RH WIND       PRES   REMARKS
LEXINGTON      LGT RAIN  60  59  96 S10       29.80R FOG
COVINGTON      FOG       60  59  96 SE6       29.77S VSB 1/4
FRANKFORT      CLOUDY    61  58  90 SE6       29.78R
$$

KYZ054-064>069-076>088-106>120-281000-
SOUTHEAST KENTUCKY

CITY           SKY/WX    TMP DP  RH WIND       PRES   REMARKS
JACKSON        FOG       59  57  93 SE3       29.83F VSB 3/4
LONDON         TSTM      60  59  96 SE5       29.84R FOG
SOMERSET       NOT AVBL
MIDDLESBORO    CLOUDY    61  61 100 CALM      29.86S
MONTICELLO     MOSUNNY   62  61  96 NE7       29.83R
$$





USA.gov is the U.S. government's official web portal to all federal, state and local government web resources and services.